This is the latest recevied weather packets stored in our database for station/object WC4PEM-13. If no packets are shown the sender has not sent any weather packets the latest 10 day(s).
| Time | Temp. | Humidity | Pressure | Rain* | Wind** | Luminosity | Snow |
|---|---|---|---|---|---|---|---|
| 1777935750 | 25° C | 69% | 1014.6 hPa | 0 mm | - | - | - |
| 1777935451 | 25° C | 69% | 1014.5 hPa | 0 mm | - | - | - |
| 1777935151 | 25° C | 69% | 1014.5 hPa | 0 mm | - | - | - |
| 1777934851 | 25° C | 69% | 1014.5 hPa | 0 mm | - | - | - |
| 1777934551 | 25° C | 69% | 1014.5 hPa | 0 mm | - | - | - |
| 1777934251 | 25° C | 69% | 1014.4 hPa | 0 mm | - | - | - |
| 1777933951 | 24.44° C | 70% | 1014.6 hPa | 0 mm | - | - | - |
| 1777933651 | 25° C | 69% | 1014.6 hPa | 0 mm | - | - | - |
| 1777933351 | 25° C | 69% | 1014.5 hPa | 0 mm | - | - | - |
| 1777933051 | 25° C | 69% | 1014.5 hPa | 0 mm | - | - | - |
| 1777932751 | 25° C | 69% | 1014.7 hPa | 0 mm | - | - | - |
| 1777932451 | 25° C | 68% | 1014.5 hPa | 0 mm | - | - | - |
| 1777932151 | 25.56° C | 67% | 1014.5 hPa | 0 mm | - | - | - |
| 1777931851 | 25.56° C | 67% | 1014.5 hPa | 0 mm | - | - | - |
| 1777931551 | 26.11° C | 66% | 1014.6 hPa | 0 mm | - | - | - |
| 1777931251 | 26.11° C | 67% | 1014.3 hPa | 0 mm | - | - | - |
| 1777930951 | 26.11° C | 66% | 1014.3 hPa | 0 mm | - | - | - |
| 1777930651 | 25.56° C | 68% | 1014.3 hPa | 0 mm | - | - | - |
| 1777930351 | 25.56° C | 68% | 1014.4 hPa | 0 mm | - | - | - |
| 1777930051 | 26.11° C | 67% | 1014.3 hPa | 0 mm | - | - | - |
| 1777929751 | 26.11° C | 66% | 1014.4 hPa | 0 mm | - | - | - |
| 1777929451 | 26.11° C | 66% | 1014.6 hPa | 0 mm | - | - | - |
| 1777929151 | 26.11° C | 66% | 1014.5 hPa | 0 mm | - | - | - |
| 1777928851 | 26.11° C | 65% | 1014.5 hPa | 0 mm | - | - | - |
| 1777928551 | 26.67° C | 64% | 1014.6 hPa | 0 mm | - | - | - |
* Rain latest hour (hover to see other rain measurements)
** Current wind speed in m/s (hover to see current wind gust speed)